星链-11375 (STARLINK-11375)

导读

STARLINK-11375是美国SpaceX星链(Starlink)项目的卫星,于2024年10月18日发射升空,归属星链低轨互联网星座组网卫星序列。该卫星延续星链设计,旨在为全球提供高速低延迟互联网服务,补充完善星座覆盖能力,推进星链全球网络布局,服务地面通信、偏远区域网络接入等多元场景需求。

基本信息
目录编号:
61577
目录名称:
STARLINK-11375
国际标识:
2024-187D
轨道中心:
EARTH
卫星名称:
星链-11375
卫星全名:
星链-11375 (STARLINK-11375)
卫星状态:
在轨 (已飞行648 天)
发射日期:
2024-10-18 UTC
国别 :
美国 (US)
星等 :
--
轨道信息
数据来源 国际轨道数据
星历时间: 2026-07-27T15:48:02+0800
16小时前
查看轨道信息
半长轴: 6737.843km
偏心率: 0.0000852
轨道倾角: 53.158°
近地点辐角 70.536°
升交点赤经 327.752°
平近点角 289.575°
近地点: 359.131km
远地点: 360.281km
周期: 91.736分钟
每日圈数: 15.697176
详细信息
固有亮度:
5
最大亮度:
2.5
卫星平台:
Starlink V1.0
覆盖范围:
全球
运营商:
太空探索技术公司
运营商所在国:
美国
制造商(研发单位):
太空探索技术公司
制造商所在国:
美国
使用方式:
暂无
卫星简介
Starlink 计划是 SpaceX 推出的全球卫星互联网项目,通过发射低轨道卫星,为全球尤其是偏远地区提供高速、低延迟的互联网服务。自 2019 年起,Starlink 已部署数千颗卫星,旨在缩小全球数字鸿沟,推动互联网普及。该项目还为军事、航空等行业提供通信支持,带来广泛经济效益。
2D轨道图
3D轨道图
轨道高度分析图
轨道倾角分析图
轨道综合分析图
查看轨道综合分析图